Regional Weather Roundup
Issued by NWS Boston, MA

Home | Current Version | Previous Version | Text Only | Print | Product List | Glossary On
Versions: 1 2 3 4 5 6 7 8 9 10 11 12 13 14 15 16 17 18 19 20 21 22 23 24 25 26 27 28 29 30 31 32 33 34 35 36 37 38 39 40 41 42 43 44 45 46 47 48 49 50
000
ASUS41 KBOX 231810
RWRBOX

REGIONAL WEATHER ROUNDUP
NATIONAL WEATHER SERVICE TAUNTON MA
200 PM EDT TUE SEP 23 2014

NOTE:  "FAIR" INDICATES FEW OR NO CLOUDS BELOW 12,000 FEET WITH NO
SIGNIFICANT WEATHER AND/OR OBSTRUCTIONS TO VISIBILITY.  THE FOLLOWING
OBSERVATION LOCATIONS DO NOT REPORT PRESENT WEATHER...PROVINCETOWN...
SMITHFIELD...BLOCK ISLAND...KEENE...AND OXFORD.

MAZALL-231900-
EASTERN MASSACHUSETTS

CITY           SKY/WX    TMP DP  RH WIND       PRES   REMARKS
BOSTON         MOSUNNY   68  41  37 VRB6      30.26F
6HR MIN TEMP:  53; 6HR MAX TEMP:  68;

BEVERLY        SUNNY     67  42  40 SW8       30.24F
LAWRENCE       SUNNY     67  45  45 SW9       30.26F
BEDFORD        SUNNY     65  43  44 S6        30.25F
BLUE HILL        N/A     67  41  38 NW7       30.26F
NORWOOD        SUNNY     68  41  37 W10       30.26F
MARSHFIELD     NOT AVBL
PLYMOUTH       SUNNY     66  41  40 VRB6      30.27F
TAUNTON        SUNNY     69  41  36 SW7       30.27F
NEW BEDFORD    SUNNY     66  44  45 S14       30.27F
$$

MAZALL-231900-
CAPE COD AND THE ISLANDS

CITY           SKY/WX    TMP DP  RH WIND       PRES   REMARKS
FALMOUTH       SUNNY     66  43  42 VRB3      30.28S
HYANNIS        SUNNY     65  38  36 NW9       30.27S
CHATHAM        SUNNY     65  43  44 VRB5      30.29S
PROVINCETOWN   SUNNY     61  39  44 W6        30.29S
NANTUCKET      SUNNY     63  40  42 NW7       30.29S
MARTHAS VNYRD  SUNNY     65  40  39 VRB5      30.29S
$$

MAZALL-231900-
CENTRAL AND WESTERN MASSACHUSETTS

CITY           SKY/WX    TMP DP  RH WIND       PRES   REMARKS
WORCESTER      SUNNY     62  43  49 W10       30.28F
6HR MIN TEMP:  45; 6HR MAX TEMP:  62;

FITCHBURG      SUNNY     69  42  37 W12       30.27S
ORANGE         SUNNY     67  43  41 W8        30.27F
SPRINGFIELD    SUNNY     68  45  43 SW9       30.28S
WESTFIELD      SUNNY     69  41  36 SW8       30.28S
NORTH ADAMS    SUNNY     64  45  49 W8        30.28F
PITTSFIELD     MOSUNNY   62  47  57 W10       30.29S
$$

RIZALL-231900-
RHODE ISLAND

CITY           SKY/WX    TMP DP  RH WIND       PRES   REMARKS
PROVIDENCE     MOSUNNY   66  44  45 S10       30.29F
6HR MIN TEMP:  49; 6HR MAX TEMP:  67;

NEWPORT        SUNNY     65  43  44 VRB6      30.29F
BLOCK ISLAND   SUNNY     63  41  45 W8        30.32S
WESTERLY       SUNNY     64  42  44 W9        30.31F
$$

CTZALL-231900-
CONNECTICUT

CITY           SKY/WX    TMP DP  RH WIND       PRES   REMARKS
BRADLEY INTL   MOSUNNY   69  44  40 W9        30.28F
6HR MIN TEMP:  50; 6HR MAX TEMP:  70;

HARTFORD       SUNNY     68  42  38 W12G18    30.29F
BRIDGEPORT     SUNNY     66  48  52 SW9       30.32S
DANBURY        SUNNY     67  43  41 VRB5      30.32F
GROTON         SUNNY     63  44  50 SW10      30.31S
NEW HAVEN      SUNNY     67  48  50 S10       30.32R
CHESTER        FAIR      64  46  52 S8        30.32S
MERIDEN        SUNNY     69  44  40 CALM      30.30F
WILLIMANTIC    SUNNY     67  42  40 W8        30.30S
OXFORD         MOSUNNY   64  46  52 NW6       30.31F
$$

MEZ002-015-021-024-NHZ003-005-008-011-012-014-VTZ005-008-231900-
NORTHERN NEW ENGLAND

CITY           SKY/WX    TMP DP  RH WIND       PRES   REMARKS
PORTLAND ME    MOSUNNY   68  44  42 W13       30.21S
6HR MIN TEMP:  47; 6HR MAX TEMP:  68;

BANGOR ME      MOSUNNY   63  40  42 W15G24    30.16F
CONCORD NH     SUNNY     68  40  35 NW8G18    30.23F
MANCHESTER NH  MOSUNNY   66  43  43 VRB3      30.22F
NASHUA NH      MOSUNNY   69  45  42 VRB3      30.25F
PORTSMOUTH NH  MOSUNNY   70  43  37 W12       30.21S
JAFFREY NH     SUNNY     64  41  42 SW8       30.27S
KEENE NH       SUNNY     64  41  42 SW9       30.26S
BURLINGTON VT  PTSUNNY   62  46  55 S12       30.25S
MT. WASHINGTON FOG       32  32 100 NW45G54     N/A  VSB 0   WCI  15
$$

NYZ052-076-231900-
EASTERN NEW YORK

CITY           SKY/WX    TMP DP  RH WIND       PRES   REMARKS
ALBANY         MOSUNNY   66  48  52 NW10G17   30.30F
6HR MIN TEMP:  49; 6HR MAX TEMP:  67;

NEW YORK CITY  MOSUNNY   68  41  37 VRB6      30.31F
6HR MIN TEMP:  55; 6HR MAX TEMP:  68;

$$

ANZALL-231900-
MARINE OBSERVATIONS

STATION/POSITION TIME  TEMP    WIND        PRES    VSBY  WAVE
                       AIR SEA DIR/SP/G                  HT/PER
                 (UTC) (F)     (DEG/KT/KT) (MB)    (MI)  (FT/S)
BOSTON BUOY      1750   59 61  190/  8/ 10 1025.1F         2/ 9
BUZZARDS BAY     1700          210/  9/ 11 1027.1R
NANTUCKET SOUND  1750   59 67  320/  4/  6 1025.7S         1/ 8
MASS BAY-STELLWA 1704   58 61  210/ 12/ 14   N/A    1 5/8
ISLE OF SHOALS   1800   60     200/ 14/ 15 1023.1F
S OF BLOCK IS    1708      68                N/A           3/ 8
$$

......................KEY.........................
  SKY/WX - SKY CONDITION/PRESENT WEATHER
  TMP    - TEMPERATURE IN FAHRENHEIT
  DWPT   - DEWPOINT IN FAHRENHEIT
  RH     - RELATIVE HUMIDITY IN PERCENT
  WIND   - DIRECTION AND SPEED IN MPH
  PRES   - MEAN SEA LEVEL PRESSURE IN INCHES OF HG
  WCI    - WIND CHILL INDEX
  VSB    - VISIBILITY IN MILES
  HX     - HEAT INDEX
  TC     - TEMPERATURE IN CELSIUS
  VRB    - VARIABLE WIND DIRECTION
  N/A    - NOT AVAILABLE



USA.gov is the U.S. government's official web portal to all federal, state and local government web resources and services.